Tracking 19827 objects as of 22-Aug-2019
HD Live streaming from Space Station
objects crossing your sky now

FENGYUN 1C DEB

Track FENGYUN 1C DEB now!
10-day predictions


NORAD ID: 30434
Int'l Code: 1999-025AEV
Perigee: 850.1 km
Apogee: 1,031.5 km
Inclination: 99.1 °
Period: 103.7 minutes
Semi major axis: 7311 km
RCS: 0.018 m2 (small)
Launch date: May 10, 1999
Source: People's Republic of China (PRC)
Launch site: Taiyaun Space Center, China (TSC)

Note: This is SATELLITE DEBRIS
aabbcc
Your satellite tracking list
Your tracking list is empty




NASA's NSSDC Master Catalog

Two Line Element Set (TLE):
1 30434U 99025AEV 19232.57584712  .00000007  00000-0  39428-4 0  9992
2 30434  99.0644 267.6398 0124082  14.0491 139.4711 13.88560458637083
Source of the keplerian elements: AFSPC